Location: Crabtree
(36.2040°N, 82.1040°W)
Time: 18:06:49
(UTC+00:00)

ISS - Visible Passes

Search period start: 21 September 2023 00:00
Search period end: 01 October 2023 00:00
Orbit: 414 x 422 km, 51.6° (Epoch: 21 September)

Date Brightness Start Highest point End Pass type
(mag) Time Alt. Az. Time Alt. Az. Time Alt. Az.
28 Sep -1.2 01:07:14 10° NNW 01:08:11 14° N 01:08:11 14° N visible
29 Sep -1.3 00:19:48 10° N 00:21:00 11° NNE 00:21:56 11° NE visible
30 Sep -1.8 01:07:00 10° NNW 01:08:38 23° NNW 01:08:38 23° NNW visible
